Home > Weather > Stuttgart > Past weeks

Flag for Germany Weather for the Past 2 Weeks in Stuttgart, Baden-Württemberg, Germany

Now
45 °F

Partly sunny.


Feels Like: 40 °F
Forecast: 36 / 40 °F
Wind: 8 mph from South

Location: Stuttgart-Echterdingen

Current Time: Feb 9, 2016 at 11:26:25 AM

Latest Report: Feb 9, 2016 at 10:20 AM


Visibility: N/A

Pressure: 29.50 "Hg

Humidity: 93%

Dew point: 43 °F

Location of StuttgartLocation

Historic Weather in Stuttgart — Graph

°F

Stuttgart Temperature Yesterday

Maximum temperature yesterday: 54 °F (at 12:20 PM)
Minimum temperature yesterday: 41 °F (at 12:20 AM)
Average temperature yesterday: 46 °F

High & Low Weather Summary for the Past Weeks

 TemperatureHumidityPressure
High61 °F (Jan 26, 2:20 PM)100% (Jan 28, 7:20 PM)30.45 "Hg (Jan 28, 7:20 PM)
Low32 °F (Feb 6, 4:20 AM)44% (Feb 6, 1:20 PM)29.53 "Hg (Feb 8, 1:50 PM)
Average44 °F80%30.11 "Hg
* Reported Jan 25 9:20 AM — Feb 9 9:50 AM, Stuttgart, Weather by CustomWeather, © 2016

Note: Actual official high and low records may vary slightly from our data, if they occured in-between our weather recording intervals... More about our weather records

Advertising

Stuttgart Weather History for the Previous 24 Hours

 ConditionsComfort  
Time TempWeatherWind HumidityBarometerVisibility
9:50 AM
Tue, Feb 9
45 °FLight rain. Partly sunny.8 mph87%29.53 "HgN/A
9:20 AM45 °FRain. Partly sunny.12 mph87%29.56 "HgN/A
8:50 AM45 °FLight rain. Partly sunny.9 mph81%29.59 "HgN/A
8:20 AM45 °FLight rain. Partly sunny.9 mph81%29.62 "HgN/A
7:50 AM41 °FPartly sunny.3 mph93%29.65 "HgN/A
7:20 AM41 °FPartly cloudy.5 mph93%29.65 "HgN/A
6:50 AM45 °FPartly cloudy.3 mph81%29.65 "HgN/A
6:20 AM43 °FPartly cloudy.6 mph87%29.68 "HgN/A
5:50 AM43 °FLight rain. Passing clouds.8 mph87%29.68 "HgN/A
5:20 AM43 °FPartly cloudy.9 mph87%29.68 "HgN/A
4:50 AM43 °FLight rain. Partly cloudy.10 mph81%29.71 "HgN/A
4:20 AM43 °FLight rain. Partly cloudy.14 mph81%29.71 "HgN/A
3:50 AM45 °FPassing clouds.8 mph76%29.71 "HgN/A
3:20 AM45 °FPartly cloudy.12 mph76%29.71 "HgN/A
2:50 AM45 °FPartly cloudy.9 mph76%29.74 "HgN/A
2:20 AM45 °FPassing clouds.13 mph76%29.74 "HgN/A
1:50 AM45 °FPassing clouds.12 mph76%29.74 "HgN/A
1:20 AM45 °FPartly cloudy.10 mph76%29.74 "HgN/A
12:50 AM45 °FLight rain. Partly cloudy.9 mph76%29.74 "HgN/A
12:20 AM45 °FPartly cloudy.13 mph76%29.74 "HgN/A
11:50 PM
Mon, Feb 8
45 °FPassing clouds.12 mph76%29.74 "HgN/A
11:20 PM43 °FPartly cloudy.10 mph81%29.71 "HgN/A
10:50 PM45 °FPartly cloudy.16 mph76%29.71 "HgN/A
10:20 PM45 °FSprinkles. Partly cloudy.9 mph81%29.71 "HgN/A
9:50 PM45 °FPassing clouds.9 mph81%29.71 "HgN/A
9:20 PM45 °FPartly cloudy.12 mph81%29.71 "HgN/A
8:50 PM45 °FPartly cloudy.15 mph81%29.68 "HgN/A
8:20 PM45 °FSprinkles. Partly cloudy.20 mph76%29.68 "HgN/A
7:50 PM45 °FSprinkles. Partly cloudy.14 mph76%29.68 "HgN/A
7:20 PM45 °FSprinkles. Partly cloudy.15 mph76%29.65 "HgN/A
6:50 PM43 °FSprinkles. Passing clouds.22 mph87%29.65 "HgN/A
6:20 PM46 °FRain showers. Passing clouds.13 mph87%29.62 "HgN/A
5:50 PM46 °FSprinkles. Passing clouds.16 mph82%29.59 "HgN/A
5:20 PM48 °FSprinkles. Partly sunny.23 mph82%29.59 "HgN/A
4:50 PM48 °FSprinkles. Broken clouds.18 mph82%29.59 "HgN/A
4:20 PM50 °FSprinkles. Broken clouds.15 mph76%29.56 "HgN/A
3:50 PM50 °FScattered clouds.16 mph76%29.56 "HgN/A
3:20 PM48 °FLight rain. Broken clouds.17 mph87%29.56 "HgN/A
2:50 PM50 °FLight rain. Partly sunny.20 mph76%29.53 "HgN/A
2:20 PM52 °FLight rain. Partly sunny.18 mph67%29.53 "HgN/A
1:50 PM54 °FSprinkles. Broken clouds.17 mph63%29.53 "HgN/A
1:20 PM54 °FSprinkles. Scattered clouds.21 mph63%29.56 "HgN/A
12:50 PM54 °FScattered clouds.17 mph58%29.56 "HgN/A
12:20 PM54 °FPartly sunny.17 mph54%29.56 "HgN/A
11:50 AM52 °FPartly sunny.21 mph54%29.56 "HgN/A
11:20 AM52 °FPartly sunny.22 mph54%29.59 "HgN/A
Weather by CustomWeather, © 2016

See weather overviewHow to use our weather pages